Location: Unspecified
(9.9280°N, 84.0910°W)
Time: 03:12:14
(UTC+00:00)

Daily predictions for brighter satellites

Satellite Brightness Start Highest point End
(mag) Time Altitude Azimuth Time Altitude Azimuth Time Altitude Azimuth
Cosmos 1943 Rocket 3.0 00:15:29 10° SSE 00:20:21 30° ESE 00:25:11 10° NE
NOSS 2-1 (D) 4.3 00:17:06 10° SSW 00:23:32 78° WNW 00:28:02 10° NNE
SJ-6F 4.4 00:20:48 10° S 00:24:41 83° W 00:28:33 10° NNW
Delta 2 Rocket 2.6 00:21:59 10° SW 00:25:15 72° SE 00:28:30 10° ENE
Cosmos 1238 Rocket 4.1 00:20:47 10° SSW 00:25:31 56° W 00:30:02 10° N
ATLAS 5 CENTAUR R/B 0.8 00:23:32 10° SSW 00:25:35 51° ESE 00:28:20 10° NE
ARIANE 5 DEB (SYLDA) 2.8 00:22:58 10° WSW 00:25:48 36° S 00:29:14 10° ESE
SWIFT 4.3 00:29:34 10° NW 00:31:04 13° N 00:32:34 10° NNE
CZ-4C R/B 3.5 00:22:22 10° NNW 00:31:06 88° ENE 00:40:26 10° SSE
SL-16 Debris 2.8 00:28:33 10° SW 00:31:13 66° SSE 00:34:18 10° ENE
Meteor 2-20 Rocket 4.4 00:25:30 10° S 00:31:18 85° E 00:37:18 10° N
Cosmos 1603 4.5 00:30:54 10° N 00:35:54 33° ENE 00:40:44 11° SE
Cosmos 2278 Rocket 2.9 00:32:49 10° SSE 00:37:45 31° ESE 00:42:40 10° NE
Meteor 1-11 Rocket 4.2 00:34:27 10° NNW 00:40:07 69° W 00:45:55 10° S
Spot 4 Rocket 4.4 00:36:41 10° SSE 00:41:31 45° ENE 00:46:20 10° N
CZ-3 Stage 3 3.5 00:27:00 10° NW 00:41:32 49° NNE 00:45:46 12° E
Transit 2A Rocket 4.5 00:38:38 10° NNW 00:42:56 76° ENE 00:47:30 10° SSE
Cosmos 2266 Rocket 4.1 00:38:01 10° N 00:44:18 62° E 00:50:36 10° SSE
EXPRESS MD2 4.1 00:45:12 10° NNW 00:48:23 24° NE 00:49:45 17° E
ARIANE 6 FM1 Upper Stage 3.3 00:47:35 10° S 00:51:33 35° ESE 00:55:27 10° NE
YAOGAN 1 4.1 00:47:53 10° SSW 00:51:46 36° W 00:55:40 10° NNW
NOAA 6 4.0 00:47:36 10° SSE 00:52:43 75° ENE 00:57:50 10° N
Ariane H10 3.1 00:50:06 10° WSW 00:53:24 43° S 00:58:39 17° ESE
Cosmos 1151 Rocket 3.0 00:54:13 10° S 00:58:28 59° E 01:02:42 10° NNE
Cosmos 1943 4.3 00:54:40 10° NW 00:59:56 43° WSW 01:05:15 10° S
Radarsat Rocket 4.3 00:54:29 10° SSE 01:01:37 81° WSW 01:07:54 10° NNW
SAR-Lupe-1 4.1 01:00:44 24° SE 01:02:35 51° ENE 01:05:57 10° N
Cosmos 1553 Rocket 4.3 00:57:29 10° SSE 01:03:32 47° E 01:09:30 10° NNE
SJ-6B 2.5 01:02:20 24° SSE 01:04:14 57° ENE 01:07:39 10° N
Sich 1 3.8 01:00:50 10° NNE 01:04:33 29° E 01:05:29 27° ESE
Cosmos 1766 Rocket 3.6 01:00:52 10° N 01:05:17 79° W 01:09:42 10° S
Ariane H10+ 4.5 00:54:16 10° WSW 01:05:34 32° S 01:11:23 19° SE
SJ-7 4.4 01:08:17 13° S 01:11:26 65° W 01:15:00 10° NNW
Resurs 01 Rocket 2.9 01:08:27 10° S 01:12:33 39° W 01:16:40 10° NNW
ATLAS 5 CENTAUR R/B 0.9 01:09:22 10° S 01:15:33 11° NE 01:15:41 10° NE
Cosmos 494 Rocket 4.2 01:08:16 10° S 01:13:14 47° ESE 01:18:14 10° NNE
OAO 3 Copernicus 4.3 01:08:16 10° NW 01:13:17 70° NE 01:15:34 32° ESE
FALCON 9 R/B 3.3 01:08:35 10° NW 01:14:16 71° NNE 01:26:50 23° ESE
Cosmos 1655 Rocket 4.3 01:08:27 10° NNE 01:14:35 48° E 01:18:13 24° SSE
Okean 3 Rocket 4.1 01:12:07 10° NNE 01:16:05 35° E 01:16:31 34° E
PSLV R/B 3.5 01:14:08 17° S 01:17:09 75° W 01:21:09 10° NNW
Cosmos 923 Rocket 4.1 01:12:35 10° SSW 01:17:50 77° WNW 01:23:02 10° N
Delta 2 Rocket 4.4 01:14:08 10° SW 01:20:16 39° SSE 01:22:03 32° ESE
USA 267 4.1 01:21:06 24° E 01:23:48 33° NE 01:29:29 10° N
Centaur Rocket 3.8 01:20:58 10° SW 01:24:43 54° SSE 01:29:01 25° E
Cosmos 2112 Rocket 3.8 01:20:51 10° S 01:25:57 65° ESE 01:31:03 10° NNE
Ariane H10+ 3.4 01:26:58 10° SW 01:27:27 14° SW 01:27:27 14° SW
Hubble Space Telescope 2.8 01:30:27 10° WSW 01:32:30 14° SSW 01:32:42 14° SSW
Meteor 2-10 Rocket 4.2 01:31:49 10° NNW 01:37:05 54° W 01:41:11 16° SSW
IUS-26 SRM-1 3.2 01:35:07 10° WNW 01:37:42 42° NW 01:37:42 42° NW
Cosmos 1340 Rocket 3.0 01:41:40 10° NNW 01:45:02 60° WNW 01:45:02 60° WNW
GPS 2-12 Rocket1 4.2 01:42:15 10° NW 01:46:19 32° NNE 01:46:59 31° NNE
Timation 2 Rocket 3.9 01:40:58 10° SSW 01:47:03 85° WNW 01:53:22 10° NNE
GOES 2 Rocket 4.2 01:42:02 10° WNW 01:48:20 74° SSW 01:50:41 48° SE
Ariane H10 4.4 01:50:50 10° WSW 01:55:01 61° SSE 01:57:42 45° ESE
Cosmos 1408 Rocket 4.2 01:53:00 10° N 01:56:09 46° N 01:56:09 46° N
CZ-4B R/B 4.3 01:59:56 29° NE 01:59:56 29° NE 02:03:04 10° N
Milstar 3 Cent rocket 3.7 01:54:18 10° NW 01:58:17 21° NNE 01:59:13 19° NNE
Atlas 2A Centaur Rocket 4.1 01:17:37 10° SW 01:58:35 60° SSE 02:01:01 48° ESE
Cosmos 1758 4.5 01:55:27 10° NNW 01:58:31 37° WNW 01:58:31 37° WNW
SPOT 5 3.8 01:57:28 33° SSW 01:59:13 46° W 02:04:05 10° NNW
Cosmos 1833 Rocket 3.5 01:55:21 10° N 01:59:27 37° NE 01:59:27 37° NE
Cosmos 1417 Rocket 4.3 02:01:26 65° SSE 02:02:24 82° E 02:08:42 10° N
MOS 1 4.5 02:03:23 57° NE 02:03:23 57° NE 02:08:21 10° N
Cosmos 1805 Rocket 4.3 01:59:12 10° N 02:02:18 46° N 02:02:18 46° N
ARIANE 5 R/B 4.1 02:00:19 10° SW 02:32:15 - E 02:02:18 28° SSW
Terra 3.0 02:09:50 34° N 02:09:50 34° N 02:12:32 10° N
Nadezhda 2 Rocket 4.4 02:03:13 10° N 02:09:22 72° ENE 02:09:22 72° ENE
OAO 2 Rocket 4.1 02:06:18 10° NW 02:10:31 46° N 02:10:31 46° N
ERS-1 Rocket 3.7 02:17:43 48° NNW 02:17:43 48° NNW 02:21:18 10° NNW
SL-08 R/B 4.5 02:12:43 10° N 02:18:08 72° N 02:18:08 72° N
Longmarch 3A Rocket 4.4 02:16:55 10° WNW 02:17:55 15° W 02:17:55 15° W
CZ-4 R/B 3.8 02:25:44 20° NW 02:25:44 20° NW 02:27:08 10° NNW
Cosmos 2322 Rocket 4.5 08:00:38 19° NE 08:00:38 19° NE 08:02:26 10° NE
Cosmos 2219 Rocket 3.8 08:25:42 29° ENE 08:25:42 29° ENE 08:29:14 10° NE
USA 234 4.3 08:20:55 10° ENE 08:26:01 37° ESE 08:26:01 37° ESE
Cosmos 2263 Rocket 4.3 08:28:58 10° N 08:30:23 18° N 08:30:23 18° N
Ariane H10 4.3 08:35:39 60° SE 08:35:39 60° SE 08:55:19 10° E
Cosmos 2360 Rocket 3.4 08:41:49 37° N 08:41:49 37° N 08:45:07 10° NNE
ADEOS II 3.9 08:34:52 10° N 08:36:52 24° N 08:36:52 24° N
CZ-2D R/B 4.2 08:49:23 10° NNW 08:50:35 16° NNW 08:50:35 16° NNW
SL-16 R/B 4.3 08:59:08 14° NNW 08:59:08 14° NNW 09:00:14 10° NNW
ARIANE 5 R/B 4.3 09:00:31 41° S 09:01:21 42° SSE 09:35:19 10° E
ARIANE 5 R/B 4.3 09:00:32 41° S 09:01:21 42° SSE 09:35:19 10° E
ARIANE 5 R/B 4.3 09:00:32 41° S 09:01:22 42° SSE 09:35:19 10° E
ARIANE 5 R/B 4.3 09:00:32 41° S 09:01:22 42° SSE 09:35:18 10° E
Cosmos 2082 4.4 09:01:23 10° N 09:06:53 52° ENE 09:12:24 10° SSE
Cosmos 2233 Rocket 3.9 09:07:01 10° N 09:12:55 67° WNW 09:12:55 67° WNW
Cosmos 990 Rocket 3.9 09:22:54 71° SSE 09:23:24 81° ESE 09:28:32 10° NNE
Delta 202 4.3 09:23:18 33° NW 09:25:37 55° NNE 09:32:26 10° E
Cosmos 1503 Rocket 4.1 09:26:37 59° WNW 09:26:37 59° WNW 09:31:20 10° N
Cosmos 2322 Rocket 4.0 09:42:26 15° NW 09:42:26 15° NW 09:44:31 10° NW
ARGOS 4.3 09:38:17 10° NNW 09:42:03 26° WNW 09:42:03 26° WNW
Cosmos 2098 Rocket 3.5 09:38:25 10° N 09:43:42 70° W 09:46:56 26° S
CZ-2C R/B 2.4 09:40:05 10° NNE 09:45:08 90° NW 09:47:43 30° SSW
Cosmos 1707 4.2 09:45:04 10° N 09:45:48 17° N 09:45:48 17° N
Atlas Centaur 2 2.1 09:51:44 38° W 09:53:26 60° NNW 09:59:17 10° NE
Meteor 1-26 Rocket 4.4 09:49:27 10° N 09:55:01 72° E 10:00:26 10° SSE
Cosmos 1844 4.4 09:50:19 10° N 09:55:48 54° ENE 10:01:11 10° SSE
FengYun 1-2 T 4.2 09:51:35 10° NNE 09:57:04 86° ESE 10:01:57 14° SSW
SJ-11-01 4.2 09:55:03 10° N 09:59:44 82° WNW 10:02:57 20° SSW
H-2A R/B 2.5 09:56:01 10° N 10:00:00 40° WNW 10:00:48 36° WSW
Meteor 1-20 Rocket 4.3 10:00:56 10° S 10:06:30 82° E 10:12:10 10° N
Cosmos 2219 Rocket 3.7 10:07:26 17° WNW 10:07:57 17° WNW 10:11:30 10° NNW
Cosmos 2237 Rocket 3.9 10:03:35 10° SSE 10:08:29 30° ESE 10:13:22 10° NE
USA 234 4.1 10:03:56 10° NNE 10:09:38 33° NW 10:13:22 19° W
BREEZE-M DEB (TANK) 3.0 10:11:52 22° S 10:11:52 22° S 10:13:35 10° SSE
Delta 2 Rocket 3.1 10:08:58 13° NW 10:11:20 50° NE 10:13:59 10° ESE
FUSE 4.0 10:10:46 24° WSW 10:13:59 72° NNW 10:19:19 10° ENE
H-2A R/B 4.4 10:16:40 12° WNW 10:16:40 12° WNW 10:17:15 10° WNW
Cosmos 1072 Rocket 4.4 10:09:50 10° N 10:15:54 72° W 10:21:58 10° S
Cosmos 2058 Rocket 3.3 10:11:31 10° N 10:15:58 75° E 10:20:22 10° S
Cosmos 1726 Rocket 4.1 10:12:14 10° NNW 10:16:21 37° W 10:19:27 15° SSW
Aureole 1 Rocket 3.9 10:14:28 23° SW 10:17:07 42° WNW 10:22:36 10° N
COSMOS 2428 2.7 10:13:12 16° SSW 10:17:49 65° WNW 10:23:27 10° N
ARIANE 44L R/B 3.1 10:16:28 24° WSW 10:18:23 65° S 10:30:34 10° E
Cosmos 1842 2.7 10:16:09 10° N 10:19:14 80° E 10:22:20 10° S
Cosmos 2219 4.4 10:15:18 10° WNW 10:19:21 20° WSW 10:20:32 19° WSW
Cosmos 1939 Rocket 3.0 10:19:23 10° N 10:22:50 43° WNW 10:25:18 17° SW
Cosmos 2322 4.0 10:19:41 16° SW 10:23:57 47° WNW 10:29:23 10° N
Cosmos-2242 3.0 10:21:28 10° NNW 10:25:34 54° W 10:29:39 10° S
NOAA 12 4.1 10:22:50 10° NNE 10:28:08 88° WNW 10:33:27 10° SSW
Star 48 S/N 10017-12 4.4 10:27:54 15° W 10:30:41 47° NNW 10:32:58 10° NE
Cosmos 1844 Rocket 2.8 10:26:19 10° NNW 10:31:45 53° WSW 10:37:14 10° S
Cosmos 1758 Rocket 4.4 10:29:02 14° SW 10:32:15 31° W 10:36:11 10° NNW
USA 281 4.0 10:32:00 10° SE 10:38:24 57° ENE 10:44:47 10° N
Meteor 1-5 Rocket 4.4 10:36:51 10° S 10:42:35 88° E 10:48:28 10° N
Cosmos 2034 Rocket 4.0 10:39:12 10° N 10:45:21 70° W 10:51:37 10° S
Cosmos 1602 Rocket 3.9 10:42:15 10° SSW 10:46:20 42° W 10:50:27 10° NNW
Cosmos 1271 Rocket 4.4 10:45:44 10° WNW 10:46:50 11° W 10:47:55 10° WSW
Meteor 1-25 Rocket 4.4 10:42:13 10° SSW 10:47:39 51° W 10:53:03 10° N
ARIANE 5 R/B 3.6 10:48:01 10° S 10:48:46 10° S 10:49:35 10° SSE
SL-16 R/B 3.0 10:43:08 10° S 10:48:48 38° WSW 10:54:26 10° NW
NOSS 0 Rocket 4.2 10:43:20 10° SSW 10:49:19 51° WNW 10:55:18 10° N
Cosmos 2208 Rocket 4.0 10:46:32 10° NNW 10:51:47 66° WSW 10:57:06 10° S
Sea Lan Dem Rocket 3.4 10:48:23 10° WSW 10:53:23 29° S 10:56:37 10° ESE
Meteor 2-6 Rocket 4.4 10:50:01 10° NNW 10:55:17 52° W 11:00:42 10° S
